Cotulla, TX

8:02 AM CDT on August 23, 2017 (GMT -0500)
Cotulla-La Salle County

Weather History for KCOT - November, 2012

Change the Weather History Date:

Sunday, November 4, 2012

  Actual Average Record
Temperature  
Mean Temperature 76 °F -  
Max Temperature 88 °F 75 °F 88 °F (2012)
Min Temperature 64 °F 55 °F 39 °F (2004)
Cooling Degree Days 10    
Growing Degree Days 26 (Base 50)    
Moisture  
Dew Point 62 °F    
Average Humidity 70    
Maximum Humidity 88    
Minimum Humidity 38    
Precipitation  
Precipitation 0.00 in - - ()
Sea Level Pressure  
Sea Level Pressure 30.05 in    
Wind  
Wind Speed 6 mph (ENE)    
Max Wind Speed 9 mph    
Max Gust Speed -    
Visibility 10 miles    
Events      
Averages and records for this station are not official NWS values.
T = Trace of Precipitation, MM = Missing Value Source: NWS Daily Summary

Daily Weather History Graph

Daily Weather History Graph

Search for Another Location

Airport or City:

Trip Planner

Search our weather history database for the weather conditions in past years. The results will help you decide how hot, cold, wet, or windy it might be!

Date:

Astronomy

Nov. 04, 2012 Rise Set
Actual Time 6:51 AM CST 5:49 PM CST
Civil Twilight 6:26 AM CST 6:13 PM CST
Nautical Twilight 5:58 AM CST 6:41 PM CST
Astronomical Twilight 5:31 AM CST 7:09 PM CST
Moon 10:32 PM CST (11/4) 11:30 AM CST (11/4)
Length of Visible Light 11h 46m
Length of Day
10h 58m
Waning Gibbous, 72% of the Moon is Illuminated
Nov 4
Waning Gibbous
Nov 6
Last Quarter
Nov 13
New
Nov 20
First Quarter
Nov 28
Full

Hourly Weather History & Observations

Time (CST) Temp. Heat Index Dew Point Humidity Pressure Visibility Wind Dir Wind Speed Gust Speed Precip Events Conditions
12:53 AM 69.1 °F - 63.0 °F 81% 30.02 in 10.0 mi East 9.2 mph - N/A   Clear
1:53 AM 68.0 °F - 62.1 °F 81% 30.04 in 10.0 mi ENE 5.8 mph - N/A   Clear
1:53 AM 64.9 °F - 61.0 °F 87% 30.04 in 10.0 mi NE 4.6 mph - N/A   Clear
2:44 AM 66.2 °F - 60.8 °F 83% 30.07 in 10.0 mi North 8.1 mph - N/A   Mostly Cloudy
2:53 AM 68.0 °F - 62.1 °F 81% 30.05 in 10.0 mi North 9.2 mph - N/A   Mostly Cloudy
3:35 AM 69.8 °F - 62.6 °F 78% 30.05 in 10.0 mi NE 8.1 mph - N/A   Overcast
3:53 AM 70.0 °F - 61.0 °F 73% 30.03 in 10.0 mi NE 6.9 mph - N/A   Overcast
4:12 AM 68.0 °F - 60.8 °F 78% 30.04 in 10.0 mi ESE 5.8 mph - N/A   Scattered Clouds
4:53 AM 66.0 °F - 61.0 °F 84% 30.01 in 10.0 mi SSE 5.8 mph - N/A   Clear
5:45 AM 66.2 °F - 62.6 °F 88% 30.06 in 10.0 mi NE 6.9 mph - N/A   Mostly Cloudy
5:53 AM 66.9 °F - 62.1 °F 84% 30.05 in 10.0 mi NE 6.9 mph - N/A   Mostly Cloudy
6:53 AM 68.0 °F - 62.1 °F 81% 30.07 in 10.0 mi East 5.8 mph - N/A   Overcast
7:15 AM 68.0 °F - 62.6 °F 83% 30.10 in 10.0 mi ENE 3.5 mph - N/A   Overcast
7:53 AM 69.1 °F - 62.1 °F 78% 30.10 in 10.0 mi NNE 3.5 mph - N/A   Overcast
8:11 AM 69.8 °F - 62.6 °F 78% 30.11 in 10.0 mi ESE 4.6 mph - N/A   Overcast
8:53 AM 73.0 °F - 64.0 °F 73% 30.09 in 10.0 mi ESE 4.6 mph - N/A   Scattered Clouds
9:53 AM 75.9 °F - 66.0 °F 71% 30.10 in 10.0 mi SE 3.5 mph - N/A   Partly Cloudy
10:53 AM 78.1 °F - 66.9 °F 68% 30.09 in 10.0 mi Variable 4.6 mph - N/A   Partly Cloudy
11:53 AM 80.1 °F 82.1 °F 66.0 °F 62% 30.07 in 10.0 mi WSW 5.8 mph - N/A   Scattered Clouds
12:53 PM 84.0 °F 85.8 °F 64.9 °F 53% 30.04 in 10.0 mi WNW 4.6 mph - N/A   Scattered Clouds
1:53 PM 84.9 °F 86.1 °F 64.0 °F 49% 30.01 in 10.0 mi South 5.8 mph - N/A   Mostly Cloudy
2:53 PM 87.1 °F 87.8 °F 63.0 °F 44% 30.00 in 10.0 mi NE 4.6 mph - N/A   Mostly Cloudy
3:53 PM 87.1 °F 86.5 °F 59.0 °F 39% 29.98 in 10.0 mi NE 3.5 mph - N/A   Clear
4:53 PM 84.9 °F 83.9 °F 57.0 °F 38% 30.00 in 10.0 mi ENE 4.6 mph - N/A   Clear
5:53 PM 80.1 °F 80.6 °F 57.9 °F 47% 30.01 in 10.0 mi ENE 4.6 mph - N/A   Clear
6:53 PM 75.0 °F - 59.0 °F 57% 30.04 in 10.0 mi ENE 4.6 mph - N/A   Clear
7:53 PM 73.9 °F - 61.0 °F 64% 30.05 in 10.0 mi East 5.8 mph - N/A   Clear
8:53 PM 73.0 °F - 63.0 °F 71% 30.06 in 10.0 mi SE 6.9 mph - N/A   Clear
9:53 PM 71.1 °F - 63.0 °F 75% 30.07 in 10.0 mi SSE 4.6 mph - N/A   Clear
10:53 PM 66.9 °F - 62.1 °F 84% 30.07 in 10.0 mi SE 3.5 mph - N/A   Clear